When you browse on this site, cookies collect data to enhance your experience and personalize the content and advertising you see.
Visit our Privacy Policy to learn more. By continuing to use the site, you agree to this use of cookies and data.
  • In Hungary
  • List of Countries
  • For 7 days
  • Water Temperature
  • Weather Map
  • News
  • Weather Widgets
  • user-avatar
    Login

    Hourly Weather Trudovoye

    Today, 17 November, Sunday

    Time Temperature Precipitation Wind Pressure Humidity
    00:00 -8°C° 0 mm 5 mps 766 mmHg 42%
    01:00 -8°C° 0 mm 5 mps 766 mmHg 42%
    02:00 -8°C° 0 mm 5 mps 766 mmHg 42%
    03:00 -10°C° 0 mm 5 mps 767 mmHg 42%
    04:00 -9°C° 0 mm 4 mps 767 mmHg 43%
    05:00 -9°C° 0 mm 4 mps 768 mmHg 44%
    06:00 -8°C° 0 mm 3 mps 768 mmHg 45%
    07:00 -8°C° 0 mm 3 mps 768 mmHg 43%
    08:00 -7°C° 0 mm 3 mps 768 mmHg 40%
    09:00 -7°C° 0 mm 3 mps 769 mmHg 33%
    10:00 -6°C° 0 mm 3 mps 768 mmHg 32%
    11:00 -4°C° 0 mm 3 mps 768 mmHg 31%
    12:00 -3°C° 0 mm 4 mps 767 mmHg 29%
    13:00 -2°C° 0 mm 3 mps 767 mmHg 31%
    14:00 -2°C° 0 mm 3 mps 766 mmHg 33%
    15:00 -1°C° 0 mm 2 mps 766 mmHg 35%
    16:00 0°C° 0 mm 1 mps 766 mmHg 37%
    17:00 0°C° 0 mm 1 mps 765 mmHg 40%
    18:00 -2°C° 0 mm 0 mps 765 mmHg 42%
    19:00 -1°C° 0 mm 0 mps 765 mmHg 42%
    20:00 0°C° 0 mm 1 mps 764 mmHg 43%
    21:00 0°C° 0 mm 1 mps 763 mmHg 43%
    22:00 -2°C° 0.2 mm 2 mps 762 mmHg 49%
    23:00 -2°C° 0.2 mm 2 mps 760 mmHg 56%

    Tomorrow, 18 November, Monday

    Time Temperature Precipitation Wind Pressure Humidity
    00:00 -1°C° 0.2 mm 3 mps 759 mmHg 62%
    01:00 -2°C° 0.7 mm 4 mps 757 mmHg 71%
    02:00 -1°C° 0.7 mm 5 mps 755 mmHg 80%
    03:00 -2°C° 0.7 mm 6 mps 753 mmHg 89%
    04:00 -2°C° 3.3 mm 7 mps 751 mmHg 90%
    05:00 -1°C° 3.3 mm 7 mps 748 mmHg 91%
    06:00 -1°C° 3.3 mm 7 mps 746 mmHg 93%
    07:00 -1°C° 2.1 mm 8 mps 745 mmHg 92%
    08:00 -1°C° 2.1 mm 9 mps 745 mmHg 92%
    09:00 -3°C° 2.1 mm 10 mps 744 mmHg 92%
    10:00 -3°C° 0.4 mm 9 mps 746 mmHg 83%
    11:00 -2°C° 0.4 mm 8 mps 748 mmHg 74%
    12:00 -2°C° 0.4 mm 8 mps 749 mmHg 65%
    13:00 -3°C° 0 mm 7 mps 750 mmHg 64%
    14:00 -6°C° 0 mm 7 mps 751 mmHg 63%
    15:00 -6°C° 0 mm 6 mps 752 mmHg 62%
    16:00 -8°C° 0 mm 6 mps 753 mmHg 64%
    17:00 -10°C° 0 mm 5 mps 754 mmHg 66%
    18:00 -10°C° 0 mm 4 mps 755 mmHg 68%
    19:00 -10°C° 0 mm 4 mps 755 mmHg 67%
    20:00 -10°C° 0 mm 4 mps 755 mmHg 66%
    21:00 -11°C° 0 mm 4 mps 756 mmHg 65%
    22:00 -11°C° 0 mm 4 mps 756 mmHg 64%
    23:00 -11°C° 0 mm 4 mps 756 mmHg 63%

    Day after tomorrow, 19 November, Tuesday

    Time Temperature Precipitation Wind Pressure Humidity
    00:00 -11°C° 0 mm 4 mps 756 mmHg 62%
    01:00 -12°C° 0 mm 4 mps 756 mmHg 62%
    02:00 -12°C° 0 mm 4 mps 756 mmHg 61%
    03:00 -12°C° 0 mm 4 mps 756 mmHg 61%
    04:00 -12°C° 0 mm 4 mps 756 mmHg 62%
    05:00 -12°C° 0 mm 4 mps 756 mmHg 62%
    06:00 -12°C° 0 mm 4 mps 756 mmHg 62%
    07:00 -12°C° 0 mm 4 mps 756 mmHg 60%
    08:00 -12°C° 0 mm 4 mps 756 mmHg 58%
    09:00 -13°C° 0 mm 5 mps 757 mmHg 56%
    10:00 -12°C° 0 mm 5 mps 757 mmHg 56%
    11:00 -12°C° 0 mm 5 mps 757 mmHg 56%
    12:00 -11°C° 0 mm 6 mps 757 mmHg 56%
    13:00 -11°C° 0 mm 6 mps 757 mmHg 57%
    14:00 -11°C° 0 mm 6 mps 757 mmHg 58%
    15:00 -11°C° 0 mm 6 mps 757 mmHg 59%
    16:00 -11°C° 0 mm 6 mps 757 mmHg 62%
    17:00 -12°C° 0 mm 6 mps 758 mmHg 64%
    18:00 -12°C° 0 mm 6 mps 759 mmHg 67%
    19:00 -14°C° 0 mm 6 mps 759 mmHg 67%
    20:00 -14°C° 0 mm 6 mps 760 mmHg 66%
    21:00 -14°C° 0 mm 6 mps 761 mmHg 66%
    22:00 -15°C° 0 mm 6 mps 761 mmHg 66%
    23:00 -15°C° 0 mm 6 mps 762 mmHg 67%

    20 November, Wednesday

    Time Temperature Precipitation Wind Pressure Humidity
    00:00 -15°C° 0 mm 6 mps 762 mmHg 67%
    01:00 -14°C° 0 mm 5 mps 763 mmHg 68%
    02:00 -14°C° 0 mm 5 mps 763 mmHg 68%
    03:00 -14°C° 0 mm 5 mps 764 mmHg 68%
    04:00 -14°C° 0 mm 5 mps 764 mmHg 68%
    05:00 -14°C° 0 mm 4 mps 765 mmHg 69%
    06:00 -14°C° 0 mm 4 mps 765 mmHg 69%
    07:00 -12°C° 0 mm 4 mps 766 mmHg 67%
    08:00 -12°C° 0 mm 4 mps 766 mmHg 65%
    09:00 -11°C° 0 mm 4 mps 767 mmHg 63%
    10:00 -10°C° 0 mm 4 mps 767 mmHg 62%
    11:00 -9°C° 0 mm 4 mps 766 mmHg 60%
    12:00 -8°C° 0 mm 4 mps 766 mmHg 59%
    13:00 -8°C° 0 mm 4 mps 766 mmHg 60%
    14:00 -6°C° 0 mm 3 mps 766 mmHg 61%
    15:00 -6°C° 0 mm 3 mps 766 mmHg 62%
    16:00 -6°C° 0 mm 2 mps 767 mmHg 65%
    17:00 -6°C° 0 mm 1 mps 767 mmHg 69%
    18:00 -6°C° 0 mm 1 mps 767 mmHg 73%
    19:00 -7°C° 0 mm 1 mps 767 mmHg 74%
    20:00 -7°C° 0 mm 1 mps 768 mmHg 75%
    21:00 -7°C° 0 mm 1 mps 768 mmHg 76%
    22:00 -7°C° 0 mm 1 mps 768 mmHg 76%
    23:00 -7°C° 0 mm 1 mps 768 mmHg 76%

    21 November, Thursday

    Time Temperature Precipitation Wind Pressure Humidity
    00:00 -8°C° 0 mm 1 mps 768 mmHg 76%
    01:00 -8°C° 0 mm 1 mps 768 mmHg 76%
    02:00 -8°C° 0 mm 1 mps 769 mmHg 76%
    03:00 -8°C° 0 mm 1 mps 769 mmHg 77%
    04:00 -8°C° 0 mm 1 mps 769 mmHg 77%
    05:00 -9°C° 0 mm 1 mps 769 mmHg 76%
    06:00 -9°C° 0 mm 1 mps 769 mmHg 76%
    07:00 -8°C° 0 mm 1 mps 769 mmHg 73%
    08:00 -7°C° 0 mm 1 mps 770 mmHg 70%
    09:00 -7°C° 0 mm 1 mps 770 mmHg 68%
    10:00 -4°C° 0 mm 1 mps 770 mmHg 62%
    11:00 -3°C° 0 mm 1 mps 770 mmHg 57%
    12:00 -2°C° 0 mm 1 mps 769 mmHg 52%
    13:00 -1°C° 0 mm 1 mps 769 mmHg 52%
    14:00 -1°C° 0 mm 1 mps 769 mmHg 52%
    15:00 -1°C° 0 mm 1 mps 769 mmHg 53%
    16:00 -1°C° 0 mm 1 mps 769 mmHg 57%
    17:00 -2°C° 0 mm 1 mps 770 mmHg 61%
    18:00 -3°C° 0 mm 1 mps 770 mmHg 65%
    19:00 -3°C° 0 mm 1 mps 770 mmHg 65%
    20:00 -3°C° 0 mm 1 mps 770 mmHg 65%
    21:00 -4°C° 0 mm 0 mps 770 mmHg 65%
    22:00 -4°C° 0 mm 0 mps 770 mmHg 66%
    23:00 -4°C° 0 mm 0 mps 770 mmHg 67%

    22 November, Friday

    Time Temperature Precipitation Wind Pressure Humidity
    00:00 -5°C° 0 mm 0 mps 770 mmHg 67%
    01:00 -4°C° 0 mm 0 mps 770 mmHg 69%
    02:00 -4°C° 0 mm 0 mps 770 mmHg 70%
    03:00 -3°C° 0 mm 1 mps 770 mmHg 71%
    04:00 -3°C° 0 mm 1 mps 770 mmHg 73%
    05:00 -3°C° 0 mm 1 mps 770 mmHg 76%
    06:00 -3°C° 0 mm 1 mps 770 mmHg 78%
    07:00 -2°C° 0 mm 1 mps 770 mmHg 79%
    08:00 -1°C° 0 mm 1 mps 770 mmHg 79%
    09:00 0°C° 0 mm 1 mps 770 mmHg 80%
    10:00 -1°C° 0 mm 2 mps 770 mmHg 80%
    11:00 +2°C° 0 mm 2 mps 769 mmHg 80%
    12:00 +2°C° 0 mm 3 mps 769 mmHg 79%
    13:00 +3°C° 0 mm 2 mps 769 mmHg 81%
    14:00 +3°C° 0 mm 2 mps 768 mmHg 83%
    15:00 +4°C° 0 mm 2 mps 768 mmHg 85%
    16:00 +3°C° 0 mm 2 mps 768 mmHg 86%
    17:00 +2°C° 0 mm 2 mps 768 mmHg 87%
    18:00 +2°C° 0 mm 2 mps 768 mmHg 89%
    19:00 +2°C° 0 mm 2 mps 768 mmHg 89%
    20:00 +2°C° 0 mm 2 mps 768 mmHg 90%
    21:00 +2°C° 0 mm 2 mps 768 mmHg 90%
    22:00 +1°C° 0 mm 3 mps 767 mmHg 90%
    23:00 +1°C° 0 mm 3 mps 767 mmHg 90%
    Show more